Location: Pl�tzky
(52.0521°N, 11.8020°E)
Time: 10:33:45
(UTC+00:00)

N. Korean satellite - Pass Details

Date: 03 February 2021
Orbit: 451 x 502 km, 97.2° (Epoch: 07 March)

Event Time Altitude Azimuth Distance (km) Brightness Sun altitude
Rises 03:49:11 0° 27° (NNE) 2,490 10.6 -27.8°
Reaches altitude 10° 03:51:46 10° 47° (NE) 1,603 9.9 -27.4°
Maximum altitude 03:54:08 17° 91° (E) 1,209 9.4 -27.1°
Drops below altitude 10° 03:56:29 10° 135° (SE) 1,587 9.6 -26.7°
Sets 03:59:01 0° 156° (SSE) 2,452 10.3 -26.3°
